Vorticity
7 4 3 3 23 19 24 22 2 12 8 7 2 6 0 11 7 9 15 14 9 15 6 1 8 8 2 5 4 4 5 7 5 9 6 1 8 9 6 3 1 9 15 11 4
6 4 9 19 23 8 7 16 13 2 6 3 4 8 -0 1 10 12 12 11 13 11 13 5 2 8 5 6 4 2 5 7 6 6 7 5 3 12 7 4 3 14 16 1 1
7 7 19 11 7 11 11 11 14 10 5 12 7 5 9 9 7 6 12 12 5 2 14 8 5 3 9 4 4 2 6 8 7 4 8 5 4 10 8 4 5 14 6 4 7
7 13 9 2 18 9 11 13 11 14 11 8 9 12 3 2 11 20 14 10 13 6 8 15 8 3 9 6 7 3 6 6 6 5 7 7 7 3 9 8 4 11 4 4 5
8 6 9 -1 8 9 12 13 5 6 7 7 7 5 3 13 18 14 14 14 11 14 8 6 15 7 2 7 7 5 6 4 6 6 5 8 7 7 5 6 6 8 6 7 -0
12 6 15 10 15 7 7 11 -2 1 9 12 3 6 18 16 19 15 11 6 9 16 7 6 12 11 5 7 4 6 6 5 4 6 4 4 7 13 2 5 0 8 8 8 0
11 4 13 8 10 9 8 12 5 12 11 9 10 24 17 20 9 10 19 17 10 17 18 20 8 14 5 6 4 9 4 5 5 6 5 0 5 8 4 5 8 3 16 15 4
12 9 18 9 9 3 5 1 1 4 14 17 24 16 9 6 10 15 27 16 11 28 17 5 7 15 8 2 8 6 5 4 5 9 5 5 7 4 8 1 7 3 16 17 5
12 11 19 10 12 10 -1 -2 9 14 16 22 14 10 7 15 17 11 -3 14 24 15 15 17 13 13 8 5 6 8 4 3 4 9 5 7 4 6 10 6 4 6 12 13 6
10 10 19 9 9 10 9 14 5 13 15 14 13 8 13 15 13 3 35 46 34 30 25 14 20 12 7 12 8 6 5 4 5 9 9 6 6 5 4 10 8 12 11 14 5
8 11 14 9 6 11 9 9 1 16 16 12 16 12 8 14 6 16 39 19 19 22 26 17 18 14 4 9 7 7 5 6 4 8 9 3 6 7 3 10 4 4 9 16 4
8 12 13 8 5 9 5 7 13 7 15 15 12 9 20 12 9 39 20 20 9 43 23 28 22 4 5 15 5 10 5 5 2 6 10 4 12 8 4 10 5 5 7 13 12
8 12 13 9 3 6 10 9 5 30 14 12 5 10 12 9 22 26 18 16 15 7 26 16 15 5 -3 14 15 12 4 0 3 7 7 8 9 9 7 15 4 6 10 11 7
7 10 13 9 12 7 9 11 17 46 -7 3 14 5 14 10 26 20 19 14 34 11 18 15 16 15 -13 17 6 14 3 -4 8 3 9 6 9 9 5 12 6 7 8 6 4
6 6 13 9 5 1 4 6 15 37 -1 6 23 25 29 8 28 25 16 20 44 -32 28 13 14 -13 21 15 11 9 4 1 5 7 6 9 10 11 8 10 7 8 6 4 2
6 7 12 8 1 4 14 3 18 11 22 3 15 21 19 17 18 7 19 31 37 12 -2 12 17 30 1 11 15 14 -2 4 4 6 8 10 7 14 8 9 7 8 6 4 4
7 11 13 10 -0 3 18 8 21 10 14 20 27 17 36 25 14 17 15 32 5 35 -2 3 36 2 18 6 9 5 2 8 10 7 13 8 8 5 4 11 6 7 7 7 4
7 13 -1 19 9 9 0 2 34 12 15 16 26 29 32 18 14 19 36 -12 27 16 8 29 -12 24 -1 -19 25 4 2 -2 3 7 8 10 8 13 11 8 0 5 8 15 11
7 12 -4 23 9 12 13 25 10 2 29 19 38 60 14 16 12 31 24 -10 43 -3 -20 11 22 -17 -1 -1 -3 11 4 6 4 8 6 11 9 9 10 8 6 7 7 8 7
8 12 2 15 6 4 14 20 5 14 0 35 29 31 16 5 25 22 1 10 42 -11 -50 13 89 17 33 7 1 6 7 5 2 5 5 11 6 9 7 6 7 7 7 5 6
7 10 3 15 6 2 6 15 7 5 31 18 16 18 18 11 18 13 2 12 26 -16 5 9 24 -27 3 1 10 -10 -5 -4 6 5 1 1 12 5 6 11 11 9 7 6 5
4 11 3 12 14 4 -0 24 8 7 25 20 24 20 6 20 14 14 13 11 24 -11 11 -19 -2 22 4 0 -19 30 10 -0 17 4 10 -3 4 2 5 8 10 7 6 8 10
5 9 -6 12 14 5 -1 12 22 8 10 2 27 13 18 17 6 12 9 10 4 4 0 4 5 3 7 6 1 -24 10 5 10 5 7 1 -0 5 9 10 7 7 12 13 14
6 9 0 17 11 9 -2 3 28 9 16 3 1 15 10 21 15 12 6 2 24 6 18 0 9 4 11 12 6 18 8 3 5 12 6 6 4 0 14 8 7 5 6 9 7
7 9 1 22 11 9 -0 2 6 8 -2 8 3 6 10 22 10 9 11 6 1 -10 7 19 10 12 9 8 6 -2 1 0 9 -0 2 -9 11 10 6 9 4 9 12 7 4
6 8 14 28 5 2 0 -0 12 44 16 2 8 5 4 22 37 18 19 13 8 4 5 0 7 8 13 16 12 12 6 6 6 4 13 3 9 7 11 9 7 8 9 4 4
7 9 15 24 13 1 -1 -2 20 24 18 22 1 20 10 24 17 14 11 10 11 11 16 25 12 13 10 7 10 15 8 2 3 5 3 7 5 6 9 8 9 7 5 5 5
Height
5759 5756 5754 5751 5748 5746 5745 5745 5746 5747 5748 5750 5750 5751 5752 5753 5755 5757 5760 5762 5764 5768 5774 5778 5783 5788 5792 5797 5802 5807 5810 5816 5818 5818 5818 5821 5824 5827 5829 5831 5833 5834 5834 5835 5836
5752 5749 5744 5742 5739 5738 5736 5736 5737 5738 5738 5739 5741 5741 5742 5743 5745 5747 5747 5749 5752 5755 5764 5768 5773 5779 5784 5791 5794 5799 5805 5812 5813 5811 5812 5817 5820 5823 5825 5827 5829 5830 5830 5831 5832
5745 5741 5736 5734 5732 5730 5728 5727 5727 5728 5729 5729 5729 5729 5729 5730 5732 5735 5733 5736 5740 5743 5753 5758 5763 5770 5775 5782 5786 5793 5802 5806 5806 5805 5808 5812 5816 5820 5821 5823 5824 5826 5826 5827 5829
5737 5734 5729 5726 5724 5723 5721 5719 5718 5718 5717 5717 5717 5716 5717 5716 5717 5720 5721 5723 5727 5733 5742 5748 5754 5760 5767 5773 5781 5787 5796 5799 5800 5800 5803 5807 5812 5816 5817 5818 5819 5821 5822 5823 5825
5730 5726 5722 5719 5716 5715 5712 5710 5708 5708 5706 5705 5704 5703 5702 5701 5702 5703 5708 5711 5714 5720 5729 5737 5743 5751 5758 5766 5773 5780 5788 5792 5792 5793 5799 5802 5806 5811 5816 5811 5813 5816 5817 5819 5822
5722 5719 5714 5711 5708 5706 5704 5701 5699 5697 5695 5692 5689 5687 5685 5685 5689 5689 5693 5696 5702 5706 5714 5724 5735 5741 5748 5756 5764 5776 5781 5785 5783 5788 5794 5799 5801 5807 5805 5807 5810 5811 5814 5817 5819
5714 5711 5706 5703 5699 5697 5695 5693 5689 5687 5682 5677 5673 5671 5671 5674 5673 5674 5676 5680 5684 5694 5701 5711 5719 5727 5739 5747 5756 5766 5771 5774 5778 5783 5789 5793 5798 5800 5799 5804 5805 5807 5810 5811 5814
5706 5703 5699 5696 5692 5688 5687 5683 5679 5674 5668 5662 5659 5657 5657 5655 5655 5658 5660 5662 5667 5675 5688 5696 5703 5713 5725 5738 5748 5755 5761 5765 5774 5779 5783 5787 5794 5791 5795 5799 5802 5803 5805 5807 5810
5698 5696 5691 5687 5683 5680 5677 5673 5666 5660 5653 5649 5645 5643 5644 5643 5641 5640 5643 5646 5651 5658 5670 5678 5688 5702 5716 5727 5738 5744 5753 5763 5767 5773 5775 5783 5787 5786 5790 5795 5797 5799 5801 5803 5805
5690 5688 5683 5678 5674 5669 5666 5661 5654 5647 5641 5637 5633 5631 5632 5629 5627 5625 5624 5624 5631 5639 5651 5661 5676 5692 5704 5716 5724 5736 5746 5758 5763 5767 5771 5775 5781 5783 5786 5789 5792 5795 5796 5799 5801
5682 5680 5675 5671 5666 5661 5657 5649 5644 5636 5630 5625 5622 5618 5618 5617 5614 5611 5611 5614 5622 5627 5638 5653 5666 5678 5701 5713 5725 5734 5749 5754 5759 5760 5765 5770 5776 5779 5780 5785 5788 5790 5791 5793 5795
5674 5672 5667 5663 5658 5653 5645 5638 5631 5627 5618 5614 5610 5607 5606 5605 5603 5601 5604 5609 5615 5622 5633 5646 5657 5683 5699 5709 5720 5732 5740 5747 5749 5755 5762 5764 5772 5773 5774 5780 5783 5784 5786 5788 5790
5667 5665 5659 5655 5651 5644 5637 5630 5622 5615 5608 5605 5600 5598 5596 5595 5593 5594 5599 5604 5612 5617 5630 5645 5665 5678 5693 5704 5714 5722 5734 5740 5745 5752 5756 5761 5767 5767 5770 5774 5777 5779 5781 5784 5785
5660 5657 5651 5649 5645 5636 5629 5622 5614 5607 5598 5595 5593 5589 5587 5585 5586 5589 5593 5600 5608 5614 5631 5644 5660 5674 5687 5698 5709 5719 5729 5734 5740 5745 5749 5756 5761 5763 5765 5769 5772 5774 5777 5779 5780
5653 5650 5644 5641 5637 5629 5623 5614 5607 5600 5590 5586 5583 5581 5579 5580 5581 5584 5589 5595 5604 5610 5626 5644 5655 5668 5682 5697 5706 5717 5723 5728 5733 5738 5745 5751 5756 5759 5759 5763 5766 5769 5773 5774 5775
5646 5643 5638 5636 5631 5623 5615 5608 5601 5595 5583 5578 5575 5573 5572 5573 5576 5580 5586 5593 5602 5611 5627 5643 5661 5666 5684 5694 5701 5709 5717 5723 5730 5735 5741 5746 5750 5753 5753 5757 5761 5764 5768 5769 5770
5639 5637 5633 5630 5626 5617 5610 5604 5596 5587 5581 5573 5568 5566 5567 5568 5573 5578 5586 5594 5601 5612 5625 5639 5650 5666 5677 5686 5695 5703 5711 5720 5726 5728 5738 5741 5744 5748 5749 5751 5755 5759 5762 5763 5764
5633 5631 5627 5624 5620 5612 5605 5598 5591 5583 5576 5568 5563 5560 5562 5564 5572 5578 5583 5591 5603 5616 5626 5639 5652 5661 5675 5684 5690 5699 5708 5716 5719 5727 5734 5736 5738 5741 5745 5747 5750 5754 5756 5758 5758
5627 5624 5622 5619 5616 5609 5603 5595 5588 5581 5574 5564 5557 5556 5559 5566 5573 5578 5588 5597 5605 5617 5628 5638 5651 5656 5670 5682 5689 5696 5703 5710 5717 5725 5729 5732 5735 5737 5740 5742 5745 5749 5751 5752 5752
5621 5619 5617 5614 5611 5606 5600 5593 5587 5581 5575 5567 5559 5561 5566 5571 5576 5581 5592 5601 5608 5618 5628 5638 5650 5660 5669 5678 5686 5695 5704 5708 5713 5721 5724 5728 5730 5732 5736 5738 5740 5743 5745 5746 5745
5615 5612 5612 5609 5607 5604 5598 5592 5587 5581 5576 5572 5570 5571 5574 5577 5582 5588 5598 5605 5616 5623 5631 5639 5651 5658 5668 5676 5684 5690 5696 5704 5711 5716 5720 5725 5727 5729 5730 5733 5736 5737 5738 5739 5739
5608 5607 5607 5605 5604 5601 5596 5591 5588 5584 5579 5575 5576 5576 5582 5584 5588 5592 5602 5612 5621 5629 5637 5645 5652 5661 5669 5676 5682 5687 5695 5699 5703 5712 5717 5721 5724 5724 5725 5728 5729 5730 5731 5732 5731
5601 5600 5602 5601 5600 5597 5594 5591 5588 5587 5584 5580 5581 5583 5585 5590 5595 5603 5608 5615 5623 5631 5639 5646 5653 5658 5665 5672 5676 5682 5693 5699 5703 5709 5712 5715 5720 5721 5722 5721 5722 5724 5725 5725 5725
5595 5595 5596 5596 5596 5594 5591 5590 5588 5587 5587 5586 5587 5591 5592 5595 5600 5606 5611 5620 5628 5634 5641 5647 5653 5660 5668 5676 5683 5687 5693 5697 5700 5703 5707 5712 5713 5714 5713 5716 5718 5718 5719 5720 5720
5589 5590 5591 5593 5592 5591 5589 5588 5588 5586 5587 5588 5590 5593 5597 5600 5603 5609 5615 5622 5630 5636 5641 5647 5653 5658 5664 5670 5675 5679 5684 5688 5691 5699 5702 5707 5707 5707 5709 5711 5712 5713 5714 5714 5714
5583 5584 5586 5588 5589 5588 5587 5586 5585 5584 5586 5588 5592 5596 5599 5604 5611 5615 5619 5625 5632 5636 5642 5646 5651 5657 5661 5665 5669 5675 5679 5683 5687 5689 5696 5699 5704 5703 5703 5704 5706 5707 5707 5708 5708
5577 5579 5581 5583 5585 5586 5585 5584 5583 5582 5584 5587 5591 5595 5600 5604 5609 5616 5620 5625 5630 5635 5641 5644 5648 5652 5656 5661 5665 5670 5676 5679 5682 5686 5691 5692 5699 5697 5697 5698 5699 5700 5701 5702 5701